Location: Bremen
(53.0793°N, 8.8017°E)
Time: 11:35:19
(UTC+01:00)

Transit 2A - Pass Details

Date: 05 December 2021
Orbit: 591 x 967 km, 66.7° (Epoch: 23 January)

Event Time Altitude Azimuth Distance (km) Brightness Sun altitude
Exits shadow 04:24:42 23° 8° (N) 1,922 8.1 -34.2°
Drops below altitude 10° 04:28:52 10° 48° (NE) 2,716 9.4 -33.6°
Sets 04:32:02 0° 62° (ENE) 3,659 10.4 -33.1°
